Regional Weather Roundup
Issued by NWS

Home | Current Version | Previous Version | Text Only | Print | Product List | Glossary Off
Versions: 1 2 3 4 5 6 7 8 9 10 11 12 13 14 15 16 17 18 19 20 21 22 23 24 25 26 27 28 29 30 31 32 33 34 35 36 37 38 39 40 41 42 43 44 45 46 47 48 49 50

000
ASUS45 KPSR 200100
RWRAZ

PRELIMINARY ARIZONA REGIONAL HOURLY WEATHER ROUNDUP
NATIONAL WEATHER SERVICE PHOENIX AZ
600 PM MST SUN OCT 19 2014

NOTE: FAIR INDICATES FEW OR NO CLOUDS BELOW 12,000 FEET WITH NO
SIGNIFICANT WEATHER AND/OR OBSTRUCTIONS TO VISIBILITY.

AZZ001>003-036-200200-
NORTHWEST ARIZONA

CITY           SKY/WX    TMP DP  RH WIND       PRES   REMARKS
KINGMAN        MOCLDY    74  44  34 NE5       29.93R
$$

AZZ004>008-015-016-018-200200-
NORTH CENTRAL ARIZONA

CITY           SKY/WX    TMP DP  RH WIND       PRES   REMARKS
GRAND CANYON   PTCLDY    50  34  54 NE5       30.13R
PRESCOTT       TSTM      70  37  29 S14       30.02R
FLAGSTAFF      MOCLDY    54  40  59 CALM      30.15R
PAYSON         PTCLDY    59  43  55 NE3       30.06R
$$

AZZ009>014-017-200200-
NORTHEAST ARIZONA

CITY           SKY/WX    TMP DP  RH WIND       PRES   REMARKS
WINSLOW        NOT AVBL
SAINT JOHNS    PTCLDY    55  46  71 CALM      30.09F
$$

AZZ023-200200-
GREATER PHOENIX AREA

CITY           SKY/WX    TMP DP  RH WIND       PRES   REMARKS
PHOENIX        PTCLDY    89  50  26 SW8       29.75R
GLENDALE       PTCLDY    88  48  25 SW6       29.77R
DEER VALLEY    TSTM      77  54  44 N20G33    29.80R
SCOTTSDALE     CLOUDY    86  44  23 E13G21    29.81R THUNDER
MESA-FALCON    MOCLDY    84  39  20 NE12      29.79
MESA-GATEWAY   MOCLDY    82  52  34 SE21G33   29.81R BLWGDUST
CHANDLER       MOCLDY    81  50  34 E21G29    29.80R DUST
$$

AZZ027-028-200200-
SOUTHWEST MARICOPA COUNTY AND PINAL COUNTY

CITY           SKY/WX    TMP DP  RH WIND       PRES   REMARKS
CASA GRANDE    MOCLDY    82  45  26 E16G31    29.83R
$$

AZZ503-504-507>509-200200-
SOUTHEAST ARIZONA

CITY           SKY/WX    TMP DP  RH WIND       PRES   REMARKS
TUCSON         CLOUDY    68  54  60 W9        29.93R
RYAN FIELD       N/A     70  54  56 W15       29.93R
NOGALES        MOCLDY    66  47  50 W8        29.94R
SIERRA VISTA   PTCLDY    67  45  45 SW5       29.97R
SAFFORD        CLOUDY    62  52  69 NE14      29.97R
$$

AZZ020-021-025-026-031-200200-
SOUTHWEST ARIZONA

CITY           SKY/WX    TMP DP  RH WIND       PRES   REMARKS
YUMA           PTCLDY    90  49  24 W5        29.72R
$$

CAZ031-033-041-043-047-048-061-200200-
SOUTHERN CALIFORNIA

CITY           SKY/WX    TMP DP  RH WIND       PRES   REMARKS
DOWNTOWN L.A.  CLEAR     71  60  68 VRB3      29.83S
L.A. AIRPORT   PTCLDY    69  62  78 W13       29.84S
SAN DIEGO      PTCLDY    71  60  68 NW5       29.86S
BURBANK        CLEAR     72  59  63 S7        29.83S
ONTARIO        PTCLDY    76  59  55 W7        29.84R
RIVERSIDE      CLEAR     75  59  57 W6        29.84R
PALM SPRINGS   CLEAR     90  49  24 NW13      29.75R
EL CENTRO NAS  CLEAR     89  47  23 E6        29.70S
IMPERIAL       CLEAR     92  46  20 E5        29.70S
BLYTHE         CLEAR     91  47  21 CALM      29.73R
$$

NVZ020-UTZ003-200200-
SOUTHERN NEVADA-UTAH

CITY           SKY/WX    TMP DP  RH WIND       PRES   REMARKS
LAS VEGAS      NOT AVBL
SALT LAKE CITY CLEAR     63  44  50 W6        30.02R
$$

NMZ009-TXZ055-200200-
NEW MEXICO-WEST TEXAS

CITY           SKY/WX    TMP DP  RH WIND       PRES   REMARKS
ALBUQUERQUE    PTCLDY    59  42  53 E6        30.14F
EL PASO        CLOUDY    71  50  47 N18       29.95R
$$


........................KEY........................
SKY/WX - SKY CONDITION/WEATHER
TMP    - TEMPERATURE IN FAHRENHEIT
DP     - DEW POINT IN FAHRENHEIT
RH     - RELATIVE HUMIDITY IN PERCENT
WIND   - DIRECTION AND SPEED IN MILES PER HOUR (MPH)
VRB    - VARIABLE WIND DIRECTION
PRES   - MEAN SEA LEVEL PRESSURE IN INCHES OF MERCURY
         F - FALLING PRESSURE   R - RISING PRESSURE
         S - STEADY PRESSURE
VSB    - VISIBILITY IN MILES
HX     - HEAT INDEX IN FAHRENHEIT
WCI    - WIND CHILL INDEX IN FAHRENHEIT
TC     - TEMPERATURE IN CELSIUS WHICH IS ALSO KNOWN AS
         TEMPERATURE IN CENTIGRADE
AFB    - AIR FORCE BASE
         LUKE AFB IS LUKE AIR FORCE BASE
         DAVIS-MONTHAN IS DAVIS-MONTHAN AIR FORCE BASE
NAS    - NAVAL AIR STATION
         EL CENTRO NAS IS EL CENTRO NAVAL AIR STATION
N/A    - NOT AVAILABLE


USA.gov is the U.S. government's official web portal to all federal, state and local government web resources and services.